This is the latest recevied weather packets stored in our database for station/object KY4GW. If no packets are shown the sender has not sent any weather packets the latest 1 day(s).
| Time | Temp. | Humidity | Pressure | Rain* | Wind** | Luminosity | Snow |
|---|---|---|---|---|---|---|---|
| 1778022769 | 17.78° C | 74% | 1010.6 hPa | 0 mm | 0.89 m/s, 295° | 12 W/m² | - |
| 1778022467 | 17.78° C | 73% | 1010.6 hPa | 0 mm | 0 m/s | 26 W/m² | - |
| 1778022163 | 17.78° C | 77% | 1010.6 hPa | 0 mm | 0 m/s | 21 W/m² | - |
| 1778021860 | 17.78° C | 74% | 1011 hPa | 0 mm | 0 m/s | 9 W/m² | - |
| 1778021557 | 17.78° C | 77% | 1011 hPa | 0 mm | 0 m/s | 14 W/m² | - |
| 1778021252 | 18.33° C | 76% | 1011 hPa | 0 mm | 0.89 m/s, 328° | 11 W/m² | - |
| 1778020950 | 18.33° C | 76% | 1010.6 hPa | 0 mm | 0 m/s | 12 W/m² | - |
| 1778020647 | 18.33° C | 76% | 1010.6 hPa | 0 mm | 0 m/s | 21 W/m² | - |
| 1778020343 | 18.33° C | 77% | 1010.6 hPa | 0 mm | 0 m/s | 20 W/m² | - |
| 1778020039 | 18.33° C | 77% | 1011 hPa | 0 mm | 0.89 m/s, 84° | 34 W/m² | - |
| 1778019735 | 18.33° C | 77% | 1011 hPa | 0 mm | 0 m/s | 58 W/m² | - |
| 1778019433 | 18.33° C | 75% | 1011 hPa | 0 mm | 0 m/s | 66 W/m² | - |
| 1778019129 | 18.33° C | 77% | 1011.3 hPa | 0 mm | 0 m/s | 79 W/m² | - |
| 1778018826 | 18.33° C | 77% | 1011.3 hPa | 0 mm | 0 m/s | 67 W/m² | - |
| 1778018524 | 18.33° C | 78% | 1011.3 hPa | 0 mm | 0 m/s | 44 W/m² | - |
| 1778018221 | 18.33° C | 75% | 1011.3 hPa | 0 mm | 0 m/s | 46 W/m² | - |
| 1778017920 | 18.33° C | 75% | 1011.3 hPa | 0 mm | 0 m/s | 55 W/m² | - |
| 1778017617 | 18.33° C | 75% | 1011.3 hPa | 0 mm | 0 m/s | 82 W/m² | - |
| 1778017314 | 18.33° C | 76% | 1011.6 hPa | 0 mm | 0 m/s | 59 W/m² | - |
| 1778017012 | 18.33° C | 77% | 1011.6 hPa | 0 mm | 0 m/s | 78 W/m² | - |
| 1778016708 | 18.33° C | 75% | 1011.6 hPa | 0 mm | 0 m/s | 53 W/m² | - |
| 1778016404 | 18.33° C | 76% | 1011.6 hPa | 0 mm | 0 m/s | 42 W/m² | - |
| 1778016102 | 18.33° C | 73% | 1011.6 hPa | 0 mm | 0 m/s | 42 W/m² | - |
| 1778015799 | 18.33° C | 73% | 1011.6 hPa | 0 mm | 0 m/s | 39 W/m² | - |
| 1778015496 | 18.33° C | 74% | 1011.6 hPa | 0 mm | 0 m/s | 41 W/m² | - |
* Rain latest hour (hover to see other rain measurements)
** Current wind speed in m/s (hover to see current wind gust speed)